Regional Weather Roundup
Issued by NWS Sioux Falls, SD

Home | Current Version | Previous Version | Text Only | Print | Product List | Glossary On
Versions: 1 2 3 4 5 6 7 8 9 10 11 12 13 14 15 16 17 18 19 20 21 22 23 24 25 26 27 28 29 30 31 32 33 34 35 36 37 38 39 40 41 42 43 44 45 46 47 48 49 50
000
ASUS43 KFSD 042210
RWRFSD

WEATHER ROUNDUP FOR SE SOUTH DAKOTA/SW MINNESOTA/NW IOWA
NATIONAL WEATHER SERVICE SIOUX FALLS SD
500 PM CDT SAT JUL 04 2015

NOTE: "FAIR" INDICATES FEW OR NO CLOUDS BELOW 12,000 FEET WITH NO
SIGNIFICANT WEATHER AND OR OBSTRUCTIONS TO VISIBILITY.


SDZ038>040-050-052>070-042300-
SOUTHEAST SOUTH DAKOTA

CITY           SKY/WX    TMP DP  RH WIND       PRES   REMARKS
BROOKINGS      SUNNY     81  63  54 S16       29.91S
CHAMBERLAIN    SUNNY     82  69  64 SE14G21   29.81F
HURON          SUNNY     83  64  52 S16G24    29.82F
MADISON        FAIR      81  64  57 S13G21    29.90F
MITCHELL       MOSUNNY   84  65  52 S14G26    29.86S
SIOUX FALLS    CLOUDY    82  66  58 S15G22    29.90F
WINNER         FAIR      93  59  31 S18G28    29.80F
YANKTON        MOSUNNY   82  66  57 S16       29.88S
$$

MNZ071-072-080-081-089-090-097-098-042300-
SOUTHWEST MINNESOTA

CITY           SKY/WX    TMP DP  RH WIND       PRES   REMARKS
FAIRMONT       MOSUNNY   81  61  50 S10       29.94S
JACKSON        MOSUNNY   81  63  54 S13       29.95F
LUVERNE        MOSUNNY   81  63  54 S9G17     29.92F
MARSHALL       SUNNY     82  61  47 S14         N/A
MONTEVIDEO     MOSUNNY   84  64  51 SW8G17    29.89S
PIPESTONE      SUNNY     79  63  57 SW9       29.93S
REDWOOD FALLS  MOSUNNY   84  63  49 S15       29.89F
TRACY          SUNNY     83  63  51 S10       29.91F
WINDOM         MOSUNNY   82  61  47 S8        29.93F
WORTHINGTON    MOSUNNY   81  61  50 S14       29.94S
$$

IAZ001>003-012>014-020>022-031-032-NEZ013-014-SDZ071-042300-
NORTHWEST IOWA

CITY           SKY/WX    TMP DP  RH WIND       PRES   REMARKS
CHEROKEE       SUNNY     79  63  58 S10       29.94F
DENISON        MOSUNNY   79  61  53 S10       29.94F
ESTHERVILLE    MOSUNNY   79  62  56 S13       29.95S
LE MARS        MOSUNNY   81  66  61 S15       29.93F
ORANGE CITY    MOSUNNY   81  64  57 S12       29.94S
SHELDON        SUNNY     81  66  61 S12G17    29.92F
SIOUX CITY     PTSUNNY   81  65  58 S12       29.93S
SPENCER        MOSUNNY   82  58  43 S10G18    29.94F
STORM LAKE     SUNNY     79  59  50 S9        29.97S
$$

ABBREVIATIONS USED IN REMARKS
   TC - TEMPERATURE IN CELSIUS
  WCI - WIND CHILL INDEX
   HX - HEAT INDEX
  VSB - VISIBILITY




USA.gov is the U.S. government's official web portal to all federal, state and local government web resources and services.